AUA533V LOWW-LIRQ

Flight info

Callsign AUA533V
Flight time 1h 4m
Altitude 32000
Route RUPET DCT GRZ/N0441F340 DCT RADLY DCT PENEP DCT ROPUS DCT RIFEN/N0444F330 DCT LUMAV/N0368F190 Q58 BIKTU
Aircraft E195/M-SDE3GILORVW/S

Departure

Time 2026-04-30 07:01
Airport Vienna International Airport (LOWW)

Arrival

Time 2026-04-30 08:05
Airport Florence Airport, Peretola (LIRQ)
Time Latitude Longitude Altitude Speed Heading
2026-04-30 06:32 48.11979 16.57097 606 ft 0 kts 26°
2026-04-30 06:57 48.11988 16.57104 610 ft 5 kts 26°
2026-04-30 06:57 48.12035 16.57163 616 ft 9 kts 88°
2026-04-30 06:58 48.12000 16.57272 619 ft 16 kts 114°
2026-04-30 06:58 48.11944 16.57415 610 ft 17 kts 164°
2026-04-30 06:58 48.11824 16.57465 617 ft 19 kts 164°
2026-04-30 06:58 48.11695 16.57520 618 ft 20 kts 164°
2026-04-30 06:59 48.11559 16.57578 610 ft 21 kts 163°
2026-04-30 06:59 48.11417 16.57637 613 ft 22 kts 165°
2026-04-30 06:59 48.11289 16.57689 613 ft 14 kts 172°
2026-04-30 06:59 48.11199 16.57641 612 ft 14 kts 208°
2026-04-30 07:00 48.11110 16.57562 613 ft 15 kts 214°
2026-04-30 07:00 48.11013 16.57480 613 ft 16 kts 205°
2026-04-30 07:00 48.10958 16.57387 612 ft 10 kts 287°
2026-04-30 07:00 48.10996 16.57280 610 ft 15 kts 295°
2026-04-30 07:01 48.11122 16.56898 612 ft 72 kts 297°
2026-04-30 07:01 48.11432 16.55954 616 ft 128 kts 296°
2026-04-30 07:01 48.11836 16.54583 843 ft 152 kts 290°
2026-04-30 07:01 48.12134 16.52978 1388 ft 170 kts 273°
2026-04-30 07:02 48.11777 16.51245 2001 ft 181 kts 243°
2026-04-30 07:02 48.11353 16.49366 2234 ft 199 kts 268°
2026-04-30 07:02 48.11540 16.47251 2548 ft 215 kts 289°
2026-04-30 07:02 48.11598 16.44873 2897 ft 241 kts 264°
2026-04-30 07:03 48.11162 16.42463 3673 ft 246 kts 250°
2026-04-30 07:03 48.10388 16.40112 4143 ft 262 kts 240°
2026-04-30 07:03 48.09323 16.37768 4663 ft 274 kts 233°
2026-04-30 07:03 48.08117 16.35597 5366 ft 276 kts 229°
2026-04-30 07:04 48.06799 16.33487 6050 ft 279 kts 227°
2026-04-30 07:04 48.05537 16.31272 6704 ft 282 kts 236°
2026-04-30 07:04 48.04647 16.28673 7258 ft 282 kts 260°
2026-04-30 07:04 48.04406 16.25775 7738 ft 286 kts 256°
2026-04-30 07:05 48.01698 16.21478 8793 ft 297 kts 211°
2026-04-30 07:05 47.99956 16.19797 9412 ft 301 kts 213°
2026-04-30 07:05 47.98765 16.18630 9843 ft 304 kts 212°
2026-04-30 07:06 47.96973 16.16941 10287 ft 317 kts 211°
2026-04-30 07:06 47.95009 16.15174 10675 ft 331 kts 210°
2026-04-30 07:06 47.93035 16.13444 11298 ft 334 kts 210°
2026-04-30 07:06 47.91026 16.11684 11971 ft 336 kts 211°
2026-04-30 07:07 47.89001 16.09918 12647 ft 338 kts 211°
2026-04-30 07:07 47.86961 16.08150 13313 ft 341 kts 211°
2026-04-30 07:07 47.84904 16.06358 13994 ft 344 kts 212°
2026-04-30 07:07 47.82828 16.04545 14571 ft 347 kts 212°
2026-04-30 07:08 47.80729 16.02732 15086 ft 351 kts 212°
2026-04-30 07:08 47.78615 16.00901 15641 ft 353 kts 212°
2026-04-30 07:08 47.76479 15.99054 16175 ft 357 kts 211°
2026-04-30 07:08 47.74290 15.97172 16712 ft 360 kts 211°
2026-04-30 07:09 47.72138 15.95325 17229 ft 364 kts 211°
2026-04-30 07:09 47.69938 15.93436 17814 ft 367 kts 211°
2026-04-30 07:09 47.67684 15.91508 18364 ft 371 kts 211°
2026-04-30 07:09 47.65463 15.89614 18869 ft 375 kts 211°
2026-04-30 07:10 47.63183 15.87671 19355 ft 379 kts 211°
2026-04-30 07:10 47.60888 15.85718 19844 ft 383 kts 211°
2026-04-30 07:10 47.58564 15.83744 20292 ft 387 kts 210°
2026-04-30 07:10 47.56216 15.81750 20794 ft 391 kts 210°
2026-04-30 07:11 47.53843 15.79740 21243 ft 394 kts 210°
2026-04-30 07:11 47.51448 15.77720 21694 ft 398 kts 210°
2026-04-30 07:11 47.49031 15.75679 22137 ft 402 kts 210°
2026-04-30 07:11 47.46568 15.73686 22572 ft 405 kts 205°
2026-04-30 07:12 47.43962 15.72052 23018 ft 408 kts 200°
2026-04-30 07:12 47.41288 15.70587 23473 ft 412 kts 199°
2026-04-30 07:12 47.38588 15.69100 23933 ft 416 kts 200°
2026-04-30 07:12 47.35877 15.67582 24349 ft 418 kts 200°
2026-04-30 07:13 47.33154 15.66037 24781 ft 420 kts 200°
2026-04-30 07:13 47.30424 15.64490 25193 ft 422 kts 200°
2026-04-30 07:13 47.27678 15.62931 25566 ft 425 kts 200°
2026-04-30 07:13 47.24918 15.61362 25987 ft 426 kts 200°
2026-04-30 07:14 47.22150 15.59796 26374 ft 428 kts 200°
2026-04-30 07:14 47.19364 15.58220 26724 ft 430 kts 200°
2026-04-30 07:14 47.16568 15.56642 27089 ft 431 kts 200°
2026-04-30 07:14 47.13759 15.55058 27448 ft 433 kts 200°
2026-04-30 07:15 47.10942 15.53473 27805 ft 435 kts 200°
2026-04-30 07:15 47.08111 15.51878 28161 ft 436 kts 200°
2026-04-30 07:15 47.05269 15.50282 28509 ft 438 kts 200°
2026-04-30 07:15 47.02418 15.48679 28850 ft 440 kts 200°
2026-04-30 07:16 46.99550 15.47070 29167 ft 442 kts 201°
2026-04-30 07:16 46.96720 15.45481 29565 ft 441 kts 201°
2026-04-30 07:16 46.93925 15.43650 30032 ft 439 kts 207°
2026-04-30 07:16 46.91231 15.41567 30473 ft 437 kts 209°
2026-04-30 07:17 46.88561 15.39437 30820 ft 437 kts 209°
2026-04-30 07:17 46.85893 15.37335 31146 ft 436 kts 209°
2026-04-30 07:17 46.80539 15.33174 31793 ft 435 kts 209°
2026-04-30 07:18 46.77871 15.31114 32115 ft 435 kts 209°
2026-04-30 07:18 46.75193 15.29057 32437 ft 434 kts 209°
2026-04-30 07:18 46.72517 15.27009 32731 ft 434 kts 209°
2026-04-30 07:18 46.69853 15.24965 33028 ft 433 kts 210°
2026-04-30 07:19 46.67189 15.22924 33312 ft 433 kts 210°
2026-04-30 07:19 46.64634 15.20632 33549 ft 430 kts 221°
2026-04-30 07:19 46.62542 15.17584 33789 ft 424 kts 233°
2026-04-30 07:19 46.60695 15.14257 34040 ft 422 kts 235°
2026-04-30 07:20 46.58876 15.10894 34308 ft 421 kts 235°
2026-04-30 07:20 46.57053 15.07571 34529 ft 423 kts 234°
2026-04-30 07:20 46.55191 15.04205 34534 ft 430 kts 234°
2026-04-30 07:21 46.51355 14.97312 34394 ft 445 kts 234°
2026-04-30 07:21 46.47433 14.90306 34387 ft 448 kts 234°
2026-04-30 07:22 46.41553 14.79843 34370 ft 448 kts 234°
2026-04-30 07:22 46.37622 14.72861 34361 ft 447 kts 234°
2026-04-30 07:23 46.33683 14.65889 34370 ft 447 kts 233°
2026-04-30 07:23 46.29753 14.58948 34375 ft 446 kts 233°
2026-04-30 07:24 46.25821 14.52020 34371 ft 445 kts 233°
2026-04-30 07:24 46.21895 14.45120 34379 ft 445 kts 233°
2026-04-30 07:25 46.17964 14.38228 34370 ft 444 kts 233°
2026-04-30 07:25 46.14037 14.31361 34373 ft 443 kts 233°
2026-04-30 07:26 46.10754 14.23956 34387 ft 438 kts 246°
2026-04-30 07:26 46.07901 14.16196 34357 ft 438 kts 244°
2026-04-30 07:27 46.04922 14.08543 34343 ft 438 kts 243°
2026-04-30 07:27 46.01909 14.00935 34328 ft 437 kts 243°
2026-04-30 07:28 45.98889 13.93348 34324 ft 436 kts 243°
2026-04-30 07:28 45.95869 13.85778 34307 ft 436 kts 243°
2026-04-30 07:29 45.92843 13.78217 34306 ft 436 kts 243°
2026-04-30 07:29 45.89819 13.70674 34318 ft 435 kts 243°
2026-04-30 07:30 45.85289 13.59464 34321 ft 435 kts 240°
2026-04-30 07:31 45.81777 13.52368 34316 ft 436 kts 237°
2026-04-30 07:31 45.78203 13.45364 34314 ft 435 kts 237°
2026-04-30 07:32 45.74645 13.38383 34319 ft 434 kts 237°
2026-04-30 07:32 45.71085 13.31409 34314 ft 433 kts 237°
2026-04-30 07:33 45.67531 13.24462 34306 ft 433 kts 237°
2026-04-30 07:33 45.63974 13.17527 34301 ft 432 kts 237°
2026-04-30 07:34 45.60417 13.10606 34296 ft 431 kts 238°
2026-04-30 07:34 45.56869 13.03716 34289 ft 431 kts 238°
2026-04-30 07:35 45.53316 12.96839 34290 ft 430 kts 238°
2026-04-30 07:35 45.49763 12.89983 34289 ft 430 kts 238°
2026-04-30 07:36 45.46235 12.83187 34295 ft 429 kts 237°
2026-04-30 07:36 45.42688 12.76375 34298 ft 428 kts 238°
2026-04-30 07:37 45.39147 12.69572 34304 ft 427 kts 238°
2026-04-30 07:37 45.35599 12.62794 34304 ft 426 kts 238°
2026-04-30 07:38 45.32054 12.56041 34310 ft 426 kts 238°
2026-04-30 07:38 45.28513 12.49301 34302 ft 425 kts 238°
2026-04-30 07:39 45.24975 12.42577 34297 ft 425 kts 237°
2026-04-30 07:39 45.21433 12.35867 34294 ft 424 kts 237°
2026-04-30 07:40 45.17898 12.29186 34288 ft 424 kts 237°
2026-04-30 07:40 45.14359 12.22513 34286 ft 423 kts 237°
2026-04-30 07:41 45.10818 12.15852 34290 ft 423 kts 238°
2026-04-30 07:41 45.07303 12.09254 34290 ft 422 kts 238°
2026-04-30 07:42 45.03764 12.02628 34288 ft 421 kts 238°
2026-04-30 07:42 45.00233 11.96032 34288 ft 421 kts 238°
2026-04-30 07:43 44.96694 11.89435 34282 ft 421 kts 238°
2026-04-30 07:43 44.93160 11.82863 34280 ft 420 kts 238°
2026-04-30 07:44 44.89631 11.76314 34278 ft 419 kts 238°
2026-04-30 07:44 44.86102 11.69776 34271 ft 419 kts 238°
2026-04-30 07:45 44.82198 11.63887 34260 ft 407 kts 221°
2026-04-30 07:45 44.79694 11.61913 33240 ft 425 kts 206°
2026-04-30 07:45 44.76752 11.61143 32710 ft 430 kts 189°
2026-04-30 07:45 44.73778 11.60906 32061 ft 429 kts 188°
2026-04-30 07:46 44.70812 11.60717 31505 ft 424 kts 188°
2026-04-30 07:46 44.67875 11.60500 30943 ft 422 kts 189°
2026-04-30 07:46 44.64935 11.60256 30378 ft 424 kts 189°
2026-04-30 07:46 44.61981 11.59996 29815 ft 425 kts 189°
2026-04-30 07:47 44.59018 11.59716 29241 ft 430 kts 189°
2026-04-30 07:47 44.56028 11.59429 28696 ft 431 kts 189°
2026-04-30 07:47 44.53033 11.59139 28093 ft 430 kts 189°
2026-04-30 07:47 44.50063 11.58850 27541 ft 426 kts 189°
2026-04-30 07:48 44.47155 11.58559 26977 ft 422 kts 189°
2026-04-30 07:48 44.44204 11.58268 26038 ft 426 kts 188°
2026-04-30 07:48 44.41303 11.57987 25465 ft 418 kts 189°
2026-04-30 07:48 44.38369 11.57671 24343 ft 427 kts 188°
2026-04-30 07:49 44.35376 11.57346 23225 ft 434 kts 188°
2026-04-30 07:49 44.32401 11.57011 22638 ft 424 kts 188°
2026-04-30 07:49 44.29484 11.56665 21988 ft 417 kts 188°
2026-04-30 07:49 44.26614 11.56315 21341 ft 410 kts 188°
2026-04-30 07:50 44.23786 11.56020 20788 ft 404 kts 187°
2026-04-30 07:50 44.21008 11.55796 20265 ft 397 kts 186°
2026-04-30 07:50 44.18268 11.55576 19734 ft 391 kts 186°
2026-04-30 07:50 44.15575 11.55346 19203 ft 386 kts 186°
2026-04-30 07:51 44.12913 11.55111 18707 ft 380 kts 186°
2026-04-30 07:51 44.10292 11.54866 18202 ft 374 kts 187°
2026-04-30 07:51 44.07713 11.54621 17706 ft 368 kts 187°
2026-04-30 07:51 44.05173 11.54385 17209 ft 363 kts 187°
2026-04-30 07:52 44.02682 11.54158 16731 ft 357 kts 187°
2026-04-30 07:52 44.00241 11.53742 16255 ft 348 kts 200°
2026-04-30 07:52 43.98087 11.52376 15834 ft 335 kts 215°
2026-04-30 07:52 43.96145 11.50633 15340 ft 331 kts 218°
2026-04-30 07:53 43.94242 11.48860 14912 ft 328 kts 218°
2026-04-30 07:53 43.92339 11.47154 14482 ft 325 kts 216°
2026-04-30 07:53 43.91073 11.46051 14182 ft 324 kts 216°
2026-04-30 07:53 43.89167 11.44419 13721 ft 322 kts 215°
2026-04-30 07:54 43.87270 11.42808 13327 ft 317 kts 215°
2026-04-30 07:54 43.85409 11.41234 13151 ft 306 kts 216°
2026-04-30 07:54 43.83604 11.39704 12845 ft 310 kts 215°
2026-04-30 07:54 43.81132 11.37597 11961 ft 313 kts 214°
2026-04-30 07:55 43.79892 11.36544 11663 ft 306 kts 214°
2026-04-30 07:55 43.78102 11.35019 11267 ft 302 kts 214°
2026-04-30 07:55 43.76303 11.33490 10868 ft 303 kts 215°
2026-04-30 07:55 43.74692 11.31641 10481 ft 301 kts 228°
2026-04-30 07:56 43.73289 11.29482 9904 ft 306 kts 231°
2026-04-30 07:56 43.71913 11.27267 9463 ft 299 kts 231°
2026-04-30 07:56 43.70548 11.25126 9102 ft 296 kts 230°
2026-04-30 07:56 43.69166 11.22975 8680 ft 301 kts 230°
2026-04-30 07:57 43.67787 11.20853 8241 ft 291 kts 229°
2026-04-30 07:57 43.66471 11.18802 7909 ft 280 kts 230°
2026-04-30 07:57 43.65204 11.16804 7482 ft 273 kts 230°
2026-04-30 07:57 43.63965 11.14886 7170 ft 263 kts 228°
2026-04-30 07:58 43.62746 11.13036 6799 ft 258 kts 227°
2026-04-30 07:58 43.61537 11.11210 6503 ft 257 kts 227°
2026-04-30 07:58 43.60369 11.09366 6111 ft 253 kts 235°
2026-04-30 07:58 43.59816 11.07130 5791 ft 247 kts 271°
2026-04-30 07:59 43.60262 11.04946 5549 ft 239 kts 307°
2026-04-30 07:59 43.61393 11.03331 5237 ft 233 kts 329°
2026-04-30 07:59 43.62736 11.02099 4937 ft 231 kts 329°
2026-04-30 08:00 43.65292 10.99566 4230 ft 220 kts 345°
2026-04-30 08:00 43.66758 10.99590 3668 ft 214 kts 29°
2026-04-30 08:00 43.67863 11.00891 3438 ft 203 kts 47°
2026-04-30 08:00 43.68976 11.01985 3307 ft 193 kts 33°
2026-04-30 08:01 43.69900 11.03192 3125 ft 181 kts 56°
2026-04-30 08:01 43.70642 11.04567 3004 ft 178 kts 50°
2026-04-30 08:01 43.71503 11.05805 2811 ft 178 kts 47°
2026-04-30 08:01 43.72335 11.07088 2575 ft 180 kts 51°
2026-04-30 08:02 43.73902 11.09519 2122 ft 153 kts 46°
2026-04-30 08:02 43.74578 11.10542 1916 ft 137 kts 49°
2026-04-30 08:03 43.75784 11.12423 1550 ft 126 kts 46°
2026-04-30 08:03 43.76905 11.14165 1189 ft 115 kts 51°
2026-04-30 08:03 43.77436 11.14971 1048 ft 115 kts 50°
2026-04-30 08:04 43.77985 11.15826 913 ft 122 kts 50°
2026-04-30 08:04 43.78566 11.16723 734 ft 127 kts 51°
2026-04-30 08:04 43.79143 11.17620 600 ft 124 kts 49°
2026-04-30 08:04 43.79714 11.18503 446 ft 124 kts 47°
2026-04-30 08:05 43.80290 11.19410 274 ft 125 kts 47°
2026-04-30 08:05 43.80870 11.20306 139 ft 121 kts 46°
2026-04-30 08:05 43.81318 11.20991 145 ft 69 kts 49°
2026-04-30 08:05 43.81495 11.21268 146 ft 17 kts 56°
2026-04-30 08:06 43.81517 11.21314 146 ft 1 kts 106°
2026-04-30 08:06 43.81509 11.21315 146 ft 1 kts 165°
2026-04-30 08:06 43.81491 11.21284 146 ft 10 kts 232°
2026-04-30 08:06 43.81427 11.21165 147 ft 17 kts 231°
2026-04-30 08:07 43.81336 11.21024 145 ft 23 kts 227°
2026-04-30 08:07 43.81228 11.20853 143 ft 25 kts 229°
2026-04-30 08:07 43.81103 11.20662 138 ft 28 kts 228°
2026-04-30 08:07 43.80976 11.20467 135 ft 26 kts 228°
2026-04-30 08:08 43.80856 11.20281 135 ft 27 kts 227°
2026-04-30 08:08 43.80735 11.20095 136 ft 26 kts 228°
2026-04-30 08:08 43.80616 11.19910 133 ft 26 kts 228°
2026-04-30 08:08 43.80557 11.19782 127 ft 8 kts 294°
2026-04-30 08:09 43.80611 11.19711 129 ft 15 kts 319°
2026-04-30 08:09 43.80694 11.19610 128 ft 9 kts 321°
2026-04-30 08:09 43.80732 11.19618 129 ft 5 kts 40°
2026-04-30 08:09 43.80758 11.19655 129 ft 8 kts 49°
2026-04-30 08:10 43.80778 11.19730 130 ft 6 kts 108°
2026-04-30 08:10 43.80757 11.19738 130 ft 2 kts 189°
2026-04-30 08:10 43.80750 11.19735 130 ft 0 kts 195°